Regional Weather Roundup
Issued by NWS

Home | Current Version | Previous Version | Graphics & Text | Print | Product List | Glossary On
Versions: 1 2 3 4 5 6 7 8 9 10 11 12 13 14 15 16 17 18 19 20 21 22 23 24 25 26 27 28 29 30 31 32 33 34 35 36 37 38 39 40 41 42 43 44 45 46 47 48 49 50
000
ASUS43 KBIS 032110
RWRND

NORTH DAKOTA REGIONAL WEATHER ROUNDUP
NATIONAL WEATHER SERVICE BISMARCK ND
400 PM CDT THU SEP 03 2015

NOTE: "FAIR" INDICATES FEW OR NO CLOUDS BELOW 12,000 FEET WITH NO
SIGNIFICANT WEATHER AND/OR OBSTRUCTIONS TO VISIBILITY.


NDZ001>003-009>011-017-032200-
NORTHWEST NORTH DAKOTA

CITY           SKY/WX    TMP DP  RH WIND       PRES   REMARKS
WILLISTON      MOSUNNY   84  49  29 N18       29.70F
MINOT          PTSUNNY   94  61  33 VRB7      29.63F HX  94
MINOT AFB      PTSUNNY   96  64  33 NW5       29.62F HX  98
$$

NDZ018>021-031>035-040>046-032200-
SOUTHWEST NORTH DAKOTA

CITY           SKY/WX    TMP DP  RH WIND       PRES   REMARKS
BISMARCK       PTSUNNY  100  62  28 S12       29.65F HX 101
DICKINSON      SUNNY     90  53  28 NW10      29.71S
GARRISON         N/A     94  59  31 W7        29.65F HX  93
HETTINGER ARPT MOSUNNY   92  45  19 VRB7      29.74S
$$

NDZ004>008-012>016-024-026-027-054-032200-
NORTHEAST NORTH DAKOTA

CITY           SKY/WX    TMP DP  RH WIND       PRES   REMARKS
GRAND FORKS    MOSUNNY   92  71  50 S22G31    29.69F HX  98
GRND FRKS AFB  SUNNY     92  71  50 S21G30    29.70S HX  98
DEVILS LAKE    SUNNY     91  70  49 S18       29.66F HX  97
$$

NDZ022-023-025-028>030-036>039-047>053-032200-
SOUTHEAST NORTH DAKOTA

CITY           SKY/WX    TMP DP  RH WIND       PRES   REMARKS
FARGO          SUNNY     93  71  48 S17G26    29.74F HX 100
JAMESTOWN      SUNNY     95  65  37 S22G29    29.70F HX  97
$$




USA.gov is the U.S. government's official web portal to all federal, state and local government web resources and services.